Volver al catálogo

ICEYE-X44

ActivoCienciaSSO
NORAD 62707·PAYLOAD·🇦🇪 UAE

Lanzado Jan 14, 2025 desde Vandenberg Space Force Base

Loading…

Próximos Pases (próximas 24 horas)

TLE

ActualizadoSource: Space-Track

Época: Sep 14, 2026, 03:56 UTC

1 62707U 25009DC  26257.16415040  .00002602  00000-0  23453-3 0  9991
2 62707  97.7000 334.8804 0002106 137.6896 222.4489 14.96425674113246

Sigue ICEYE-X44 en tiempo real con AllMySat

Download on the App Store